Simultaneous Nadir Overpasses (SNOs) Predictions

Prediction of SNOs between GOES-16 and TERRA Satellite Orbit:

Table of predicted SNOs for the next 14.0 days since TLE Epoch: 4/20/2024
Index Date Time (GOES-16) GOES-16 Lat,Lon TERRA Lat,Lon Distance(km) Time Diff (sec)
1 04/21/2024 02:44:39 -0.03, -75.20 0.24, -73.93 143.76 80
2 04/21/2024 15:04:38 0.03, -75.21 0.76, -78.80 407.17 80
3 04/23/2024 14:50:08 0.03, -75.22 -0.10, -74.66 64.24 80
4 04/24/2024 03:10:15 -0.03, -75.21 -0.94, -79.54 492.45 80
5 04/26/2024 02:53:04 -0.03, -75.22 -0.07, -75.40 20.53 80
6 04/28/2024 02:33:12 -0.02, -75.23 0.80, -71.25 451.87 80
7 04/28/2024 14:53:10 0.02, -75.24 0.20, -76.11 98.51 80
8 04/30/2024 14:38:37 0.01, -75.26 -0.69, -71.96 374.75 80
9 05/01/2024 02:58:44 -0.01, -75.26 -0.32, -76.86 181.41 80
10 05/03/2024 02:38:49 -0.00, -75.28 0.52, -72.69 293.28 80
11 05/03/2024 14:58:46 0.00, -75.29 0.49, -77.54 256.47 80
